loading
|

SCOUT X-4 DEB, 2088

Orbit data source: Space-Track

SCOUT X-4 DEB, 2088 is space debris in LEO originally from a launch on Fri, 19 Nov 1965 UTC launched from the Wallops Island (WLPIS). Debris objects in space refer to the collection of defunct objects orbiting the Earth. Examples of debris include non-operational satellites, rocket bodies, and fragments generated from explosions, collisions, or faulty payload assembly.

Loading next visibility...
Loading greatness...
SCOUT X-4 DEB details
Identifier
2088, 1965-093D
Orbit
LEO
Last TLE update11 hours ago
Origin
Flag of USGSFC (US)
ManufacturerUnknown
MissionSpacecraft
Bus & MotorUnknown bus, Unknown motor
MassUnknown
Launch date (UTC)
1965-11-19 (59 years ago)
Launch vehicleUnknown
Launch site
Wallops Island (WLPIS)
Object type
Payload
Rocket body
Debris
Shape & HBRUnknown
Radar Cross SectionSmall (<0.1 m²)

Expand to show TLE details & history

TLE from 11 hours ago
0 SCOUT X-4 DEB
1 02088U 65093D   24278.52804072  .00007428  00000-0  15401-2 0  9996
2 02088  59.7175 207.1886 0080149 190.7169 169.2173 14.58967495 63209
Epoch: 2024-10-04T12:40Z
Definitive object data (Epoch: 2024-10-04T12:40:22.718Z)
Latitude-0.00001°
Longitude3.39652°
Altitude753.756 km
Speed7.449 km/s
True Right ascension13h 48m 45s
True Declination0° 00' 00"
Sunlit
Object was in daylight at TLE epoch
Predictive object data (real-time)
Latitude-11.94036°
Longitude-171.11471°
Altitude643.683 km
Speed7.566 km/s
Apparent Right ascension03h 29m 13s
Apparent Declination-27° 04' 01"
Sunlit
Object is in full shadow
Predictive observer data (real-time)
Local Sidereal Time17:21:39
Azimuth69.724° E
Elevation-63.433°
Doppler factor1
Orbital elements
Apogee752.473 km
Perigee639.079 km
Semi-major axis7,073.913 km
Eccentricity0.0080149
Inclination59.7175°
RAAN207.1886°
Arg. of periapsis190.7169°
True anomaly169.38745°
Mean anomaly169.2173°
Eccentric anomaly169.30254°
Mean motion3.64799 °/min
BSTAR0.0015401
Period98.68 mins
No data available
No data available
Other satellites on launch #93 in the year 1965 (1965-11-19 UTC)

SCOUT X-4 DEB Visibility forecast

Observer location: 39.9160978°, -105.1181434

SCOUT X-4 DEB is not visible in the next 10 days
Span
Click to sort rows by Start time (UTC) header in descending order
Start Az.
Max El. time (UTC)
Max El. Az.
Max El.
End time (UTC)
End Az.